[[{"header":{"parameterUnit":"m.s-1","parameterCategory":1,"la1":30.2991,"la2":30.254,"lo1":-89.0895,"lo2":-89.0444,"dy":0.0017,"dx":0.0017,"nx":28,"ny":28,"refTime":"2024-05-19T09:00:00:Z","depth":0,"parameterNumber":2,"parameterNumberName":"U-component_of_WINDS"},"data":[0,0,0,0,0,0,0,0,0,0,0,0,0,0,0,0,0,0,0,0,0,0,0,0,0,0,0,0,0,0,0,0,0,0,0,0,0,0,0,0,0,0,0,0,0,0,0,0,0,0,0,0,0,0,0,0,0,0,-0.9016,-0.9016,0,-0.903,-0.903,-0.903,-0.9029,-0.9029,-0.9029,-0.9029,-0.9044,-0.9044,-0.9045,0,0,0,0,0,0,0,0,0,0,0,0,0,-0.8989,-0.8989,-0.9016,-0.9016,-0.9016,-0.903,-0.903,-0.903,-0.9029,-0.9029,-0.9029,-0.9029,-0.9044,-0.9044,-0.9045,0,0,0,0,0,0,0,0,0,0,0,0,0,-0.9001,-0.8989,-0.9016,-0.9017,-0.9018,-0.903,-0.903,-0.903,-0.9029,-0.9029,-0.9029,-0.9029,-0.9043,-0.9044,-0.9045,-0.9057,0,0,-0.9048,-0.9048,0,0,0,0,0,0,0,0,-0.9001,-0.9002,-0.9017,-0.9017,-0.9018,-0.9028,-0.9026,-0.9039,-0.903,-0.9025,-0.9029,-0.9028,-0.9039,-0.904,-0.9043,-0.9058,-0.9058,-0.9048,-0.9049,-0.9049,-0.9049,0,0,0,0,0,0,0,-0.9,-0.9002,-0.9021,-0.9017,-0.9017,-0.9018,-0.9019,-0.9029,-0.9033,-0.9025,-0.9025,-0.9027,-0.9039,-0.9043,-0.9044,-0.9059,-0.9048,-0.9049,-0.9049,-0.905,-0.9084,-0.9084,0,0,0,0,0,0,-0.8998,-0.9001,-0.9021,-0.9022,-0.9008,-0.9018,-0.902,-0.9025,-0.9033,-0.9034,-0.9027,-0.9027,-0.9041,-0.9043,-0.9044,-0.9059,-0.9049,-0.905,-0.905,-0.9084,-0.9084,-0.9084,0,0,0,0,0,0,-0.8998,-0.9,-0.902,-0.9011,-0.9014,-0.9019,-0.9024,-0.9025,-0.9029,-0.9035,-0.9036,-0.903,-0.9041,-0.9043,-0.9054,-0.9059,-0.905,-0.9051,-0.9083,-0.9084,-0.9084,-0.9088,0,0,0,0,0,0,-0.8997,-0.9,-0.9004,-0.9012,-0.9014,-0.9029,-0.9025,-0.9026,-0.903,-0.903,-0.9038,-0.9039,-0.9041,-0.9053,-0.9055,-0.906,-0.9052,-0.9083,-0.9083,-0.9084,-0.9087,-0.9089,-0.909,0,0,0,0,0,-0.8996,-0.9005,-0.9005,-0.9007,-0.902,-0.903,-0.9031,-0.9034,-0.9031,-0.9035,-0.9039,-0.9038,-0.9059,-0.9054,-0.9056,-0.9062,-0.9082,-0.9083,-0.9084,-0.9087,-0.9088,-0.909,0,0,0,0,0,0,-0.8998,-0.9006,-0.9006,-0.9017,-0.9023,-0.903,-0.9035,-0.9035,-0.9042,-0.9042,-0.9044,-0.9046,-0.9057,-0.9061,-0.9055,-0.9074,-0.907,-0.9071,-0.9071,-0.9073,-0.9074,-0.9073,-0.9052,0,0,0,0,0,-0.9,-0.9007,-0.9014,-0.9023,-0.9026,-0.903,-0.9034,-0.9036,-0.9042,-0.9045,-0.9049,-0.9056,-0.9063,-0.9068,-0.9076,-0.9088,-0.909,-0.9093,-0.9095,-0.9095,-0.9096,-0.9103,-0.9105,-0.9087,-0.9087,-0.9087,0,0,-0.9004,-0.9009,-0.9013,-0.9023,-0.9028,-0.9036,-0.9032,-0.904,-0.9046,-0.9046,-0.9056,-0.906,-0.9067,-0.9079,-0.9084,-0.9083,-0.9102,-0.9097,-0.9097,-0.9098,-0.9104,-0.9106,-0.9108,-0.9088,-0.9088,-0.9088,0,0,-0.9014,-0.9019,-0.9027,-0.9032,-0.9039,-0.9042,-0.9044,-0.9051,-0.9054,-0.9064,-0.9064,-0.9071,-0.9085,-0.909,-0.9094,-0.9107,-0.9107,-0.911,-0.9116,-0.9122,-0.9124,-0.9125,-0.913,-0.9131,-0.9111,-0.9111,-0.9111,0,-0.9018,-0.9029,-0.9032,-0.904,-0.9044,-0.9045,-0.9053,-0.9058,-0.9067,-0.9071,-0.9068,-0.9085,-0.909,-0.9103,-0.9106,-0.911,-0.9112,-0.9109,-0.9123,-0.9125,-0.9126,-0.913,-0.9132,-0.9111,-0.9111,-0.9111,-0.9111,0,-0.9034,-0.9042,-0.9048,-0.9056,-0.9062,-0.907,-0.9074,-0.9079,-0.908,-0.9083,-0.9094,-0.91,-0.9109,-0.9112,-0.9113,-0.9126,-0.9124,-0.9123,-0.9118,-0.9128,-0.9132,-0.9134,-0.9112,-0.9112,-0.9112,-0.9111,0,0,-0.9046,-0.9056,-0.9058,-0.9062,-0.907,-0.9076,-0.9085,-0.9093,-0.9098,-0.9105,-0.9112,-0.9123,-0.9122,-0.9127,-0.9129,-0.9135,-0.9145,-0.9132,-0.9133,-0.9134,-0.9159,-0.916,-0.9162,-0.9145,-0.9145,-0.9145,-0.9158,0,-0.9057,-0.9072,-0.9075,-0.9088,-0.9095,-0.9096,-0.9103,-0.9109,-0.9112,-0.9119,-0.9123,-0.9131,-0.9129,-0.9132,-0.9138,-0.9142,-0.915,-0.9142,-0.9152,-0.9152,-0.915,-0.9164,-0.9165,-0.9176,-0.916,-0.916,-0.916,0,-0.9072,-0.9079,-0.9093,-0.91,-0.9103,-0.911,-0.9118,-0.9125,-0.9132,-0.9134,-0.914,-0.9141,-0.915,-0.9146,-0.9159,-0.9153,-0.9157,-0.916,-0.9161,-0.9162,-0.9156,-0.9165,-0.918,-0.9182,-0.9163,-0.9163,-0.9162,0,-0.908,-0.9092,-0.9102,-0.9106,-0.9114,-0.9119,-0.9123,-0.913,-0.9135,-0.9142,-0.9145,-0.9154,-0.9158,-0.9165,-0.9168,-0.9165,-0.9181,-0.9177,-0.9183,-0.9183,-0.9186,-0.9186,-0.9202,-0.9189,-0.9189,-0.9189,-0.9189,0,-0.9092,-0.9101,-0.9106,-0.9112,-0.9121,-0.9124,-0.9134,-0.9138,-0.9144,-0.9151,-0.9152,-0.9159,-0.9163,-0.917,-0.9173,-0.9184,-0.9186,-0.9188,-0.9188,-0.9188,-0.9187,-0.919,-0.9189,-0.919,-0.919,-0.919,-0.919,0,-0.9102,-0.9106,-0.9116,-0.9124,-0.9126,-0.9133,-0.9139,-0.9145,-0.9149,-0.9158,-0.916,-0.9166,-0.9174,-0.9179,-0.919,-0.9192,-0.9203,-0.9203,-0.9201,-0.9201,-0.9207,-0.9206,-0.9225,-0.9228,-0.9214,-0.9214,-0.9214,0,-0.9109,-0.9116,-0.9124,-0.9129,-0.9133,-0.914,-0.9145,-0.9149,-0.9154,-0.9162,-0.9168,-0.9176,-0.9184,-0.9198,-0.9203,-0.9211,-0.9212,-0.9218,-0.9213,-0.9212,-0.9212,-0.9211,-0.9212,-0.9219,-0.9219,-0.9219,-0.9219,0,-0.9123,-0.9124,-0.9131,-0.9139,-0.9145,-0.9151,-0.9158,-0.9161,-0.9166,-0.9172,-0.9181,-0.9186,-0.9197,-0.9206,-0.9215,-0.922,-0.922,-0.9221,-0.9222,-0.9221,-0.922,-0.922,-0.9203,-0.922,-0.922,-0.922,-0.922,-0.922,-0.9132,-0.9137,-0.9144,-0.9152,-0.9157,-0.9163,-0.9169,-0.9173,-0.918,-0.9189,-0.9191,-0.92,-0.9208,-0.922,-0.9224,-0.9232,-0.923,-0.9233,-0.9234,-0.9234,-0.9235,-0.9219,-0.9234,-0.9234,-0.9234,-0.9233,-0.9233,0,-0.9145,-0.9149,-0.9156,-0.9165,-0.9171,-0.9171,-0.9178,-0.9183,-0.9191,-0.9198,-0.9205,-0.9215,-0.9224,-0.9229,-0.9238,-0.9243,-0.9244,-0.9245,-0.9245,-0.9246,-0.9235,-0.9233,-0.9245,-0.9245,-0.9245,-0.9245,-0.9245,-0.9245,-0.9152,-0.9162,-0.9164,-0.9177,-0.9181,-0.919,-0.9194,-0.9199,-0.9205,-0.9216,-0.9223,-0.9227,-0.9233,-0.9242,-0.925,-0.9252,-0.9255,-0.9256,-0.9258,-0.9248,-0.9247,-0.9246,-0.9243,-0.9257,-0.9257,-0.9268,-0.9268,-0.9268]},{"header":{"parameterUnit":"m.s-1","parameterCategory":1,"la1":30.2991,"la2":30.254,"lo1":-89.0895,"lo2":-89.0444,"dy":0.0017,"dx":0.0017,"nx":28,"ny":28,"refTime":"2024-05-19T09:00:00:Z","depth":0,"parameterNumber":3,"parameterNumberName":"V-component_of_WINDS"},"data":[0,0,0,0,0,0,0,0,0,0,0,0,0,0,0,0,0,0,0,0,0,0,0,0,0,0,0,0,0,0,0,0,0,0,0,0,0,0,0,0,0,0,0,0,0,0,0,0,0,0,0,0,0,0,0,0,0,0,2.2745,2.2745,0,2.2701,2.2701,2.27,2.2639,2.2638,2.2637,2.2636,2.2589,2.2589,2.2588,0,0,0,0,0,0,0,0,0,0,0,0,0,2.2775,2.2775,2.2745,2.2745,2.2744,2.2701,2.2701,2.27,2.2639,2.2638,2.2636,2.2635,2.2589,2.2589,2.2588,0,0,0,0,0,0,0,0,0,0,0,0,0,2.275,2.2775,2.2746,2.2709,2.2705,2.2701,2.2701,2.27,2.2639,2.2638,2.2636,2.2634,2.2589,2.2589,2.2588,2.2617,0,0,2.2587,2.2587,0,0,0,0,0,0,0,0,2.2751,2.2749,2.2715,2.2711,2.2707,2.2674,2.2694,2.2672,2.2639,2.2664,2.2636,2.2634,2.2618,2.2615,2.261,2.2615,2.2613,2.2587,2.2587,2.2587,2.2586,0,0,0,0,0,0,0,2.2753,2.275,2.2728,2.2714,2.2709,2.2694,2.2688,2.269,2.265,2.2662,2.2657,2.2653,2.2616,2.2611,2.2609,2.2612,2.2587,2.2587,2.2586,2.2586,2.2638,2.264,0,0,0,0,0,0,2.2761,2.2752,2.2729,2.2727,2.2726,2.2695,2.2689,2.2686,2.265,2.2643,2.2654,2.265,2.2612,2.2609,2.2607,2.2639,2.2587,2.2586,2.2586,2.2636,2.2638,2.264,0,0,0,0,0,0,2.2762,2.2759,2.2731,2.2738,2.2733,2.2696,2.2693,2.2686,2.2681,2.2645,2.2637,2.2657,2.2611,2.2608,2.2615,2.2636,2.2586,2.2586,2.2634,2.2637,2.2639,2.2702,0,0,0,0,0,0,2.2763,2.276,2.2771,2.2739,2.2733,2.2741,2.2695,2.2686,2.2681,2.2675,2.2645,2.2638,2.261,2.2616,2.2615,2.2635,2.2585,2.2632,2.2636,2.2638,2.2698,2.2706,2.2714,0,0,0,0,0,2.2764,2.279,2.2772,2.2769,2.2746,2.2742,2.2739,2.2706,2.2683,2.2693,2.267,2.2639,2.2634,2.2617,2.2615,2.2636,2.2631,2.2635,2.2638,2.2695,2.2705,2.2713,0,0,0,0,0,0,2.2825,2.2785,2.2764,2.2781,2.2765,2.2732,2.2744,2.2717,2.2708,2.2703,2.2661,2.2655,2.2668,2.2652,2.2634,2.2662,2.2628,2.2631,2.2671,2.2681,2.2689,2.2692,2.2585,0,0,0,0,0,2.284,2.284,2.2805,2.2823,2.2817,2.2782,2.2779,2.2755,2.2737,2.273,2.2707,2.269,2.2684,2.2682,2.2674,2.2695,2.2688,2.2708,2.2716,2.2723,2.2726,2.2736,2.2745,2.2652,2.2652,2.2652,0,0,2.2872,2.285,2.2853,2.2835,2.282,2.2821,2.2777,2.2779,2.278,2.273,2.2736,2.2718,2.2697,2.2711,2.2717,2.2699,2.275,2.2727,2.2733,2.2733,2.2741,2.275,2.2757,2.2655,2.2654,2.2654,0,0,2.293,2.2914,2.2927,2.2913,2.2891,2.2868,2.2871,2.2842,2.2828,2.2834,2.2797,2.2796,2.2787,2.2774,2.2766,2.2819,2.2791,2.2818,2.2859,2.2869,2.2876,2.2883,2.2902,2.2909,2.2821,2.2822,2.2822,0,2.2972,2.2972,2.2937,2.2942,2.2936,2.2891,2.2904,2.2892,2.2869,2.2865,2.2846,2.2835,2.2817,2.2828,2.2841,2.2836,2.2838,2.2821,2.2878,2.2884,2.2889,2.2907,2.2915,2.2825,2.2825,2.2824,2.2824,0,2.3025,2.3026,2.3039,2.3019,2.3014,2.3023,2.2989,2.2987,2.2964,2.2943,2.2949,2.2926,2.2914,2.2914,2.2891,2.2922,2.2912,2.2886,2.2851,2.2902,2.2919,2.2925,2.283,2.2829,2.2828,2.2827,0,0,2.3121,2.3081,2.3086,2.3077,2.3049,2.3049,2.3056,2.3045,2.3045,2.303,2.3035,2.3029,2.3005,2.2996,2.2971,2.298,2.3024,2.2953,2.2951,2.2967,2.3057,2.3077,2.3086,2.3005,2.3006,2.3007,2.3059,0,2.3174,2.3184,2.3153,2.3171,2.3172,2.3129,2.3135,2.3119,2.3099,2.3096,2.3074,2.3071,2.3039,2.3034,2.3041,2.3017,2.3042,2.3013,2.3009,2.3009,2.3016,2.3094,2.3115,2.3165,2.3065,2.3066,2.3067,0,2.3238,2.3227,2.3246,2.3218,2.3217,2.3223,2.321,2.3208,2.3189,2.3174,2.3164,2.3135,2.3139,2.3106,2.3112,2.3093,2.3089,2.3078,2.3079,2.3077,2.3041,2.3095,2.318,2.3188,2.3076,2.3075,2.3075,0,2.3306,2.3297,2.3307,2.3299,2.3267,2.3272,2.3259,2.3238,2.3233,2.3222,2.3218,2.3207,2.3202,2.3193,2.3162,2.3141,2.3172,2.3136,2.3159,2.316,2.3168,2.3168,2.3254,2.3165,2.3165,2.3165,2.3164,0,2.3369,2.3382,2.3337,2.3343,2.3357,2.332,2.3334,2.3316,2.3298,2.33,2.3262,2.3265,2.3223,2.322,2.3196,2.3204,2.3202,2.3189,2.3183,2.3193,2.3195,2.319,2.3186,2.3167,2.3166,2.3166,2.3165,0,2.3448,2.3418,2.3426,2.3395,2.3387,2.3399,2.3372,2.3376,2.3354,2.3357,2.3355,2.332,2.3316,2.3283,2.3271,2.3254,2.3272,2.3258,2.3279,2.3275,2.33,2.3298,2.3387,2.3396,2.3301,2.3302,2.3303,0,2.3491,2.35,2.347,2.3468,2.3457,2.3455,2.3451,2.3415,2.3411,2.339,2.3397,2.3389,2.3381,2.3375,2.3349,2.3339,2.3325,2.3356,2.3323,2.3333,2.3326,2.3326,2.3327,2.3364,2.3365,2.3366,2.3367,0,2.3569,2.3554,2.3549,2.3539,2.3534,2.3524,2.3512,2.3513,2.3473,2.3471,2.3466,2.346,2.3447,2.344,2.3426,2.3411,2.3383,2.3378,2.3382,2.3393,2.3405,2.34,2.3299,2.3376,2.3375,2.3374,2.3374,2.3373,2.3631,2.3638,2.3618,2.3613,2.36,2.359,2.3592,2.3571,2.3566,2.3554,2.3533,2.3531,2.3511,2.3489,2.3477,2.3475,2.3458,2.3465,2.3467,2.3469,2.3475,2.3405,2.3472,2.3472,2.3471,2.3471,2.3471,0,2.3709,2.3694,2.369,2.3674,2.3671,2.3644,2.3629,2.3628,2.3627,2.3611,2.3604,2.3598,2.3591,2.3564,2.3554,2.3558,2.3544,2.3556,2.3556,2.3553,2.349,2.3487,2.3567,2.3567,2.3567,2.3567,2.3567,2.3567,2.3749,2.3758,2.3741,2.3743,2.3728,2.3726,2.372,2.371,2.3697,2.3693,2.3687,2.367,2.3649,2.3637,2.363,2.3622,2.362,2.3637,2.3624,2.3567,2.3557,2.3549,2.3545,2.3636,2.3636,2.3687,2.3688,2.3688]}]]